sat.trackr.live / text

‹ back to catalog

STARLINK-37576

NORAD 69047 · 2026-101Y

PAYLOAD ACTIVE UNKNOWN

§ Identity

Operator
Country
US
Launch date
2026-05-06
Launch site
AFWTR
Launch vehicle
Mass (kg)
RCS (m²)

Purposes: comms

External: N2YO · Heavens-Above · Gunter

§ Orbital elements

Epoch: 2026-05-25T03:07:41.809728Z

Period
91.42 min
Inclination
97.2846°
Eccentricity
0.0001656
Mean motion
15.75224702 rev/d
Perigee alt
342.9 km
Apogee alt
345.1 km
Semi-major
6,722.1 km
B*
7.6849e-4
RAAN
359.9240°
Arg perigee
69.3336°
Mean anomaly
290.8107°
Rev number
301

§ Raw data

STARLINK-375761 69047U 26101Y   26145.13034502  .00116244  00000+0  76849-3 0  99962 69047  97.2846 359.9240 0001656  69.3336 290.8107 15.75224702  3010

JSON: /api/v1/satellites/69047 · /tle

For live sub-satellite position, see the globe view (requires WebGL).

§ Visibility from observer

Set your observer location to see the next 7 days of passes ≥ 10°. The values pass through the URL so the page stays shareable.

No JS? Fill the form by hand. The geolocation button needs JavaScript.